DW8750 Weather Reports


Display with metric or nautical units.
time (UTC)temp
F
wind
direction
speed
MPH
gust
MPH
rain 1hr
in
rain 24hr
in
rain mn
in
humidity
%
barometer
mb
20260507093427 75 186 10.0 31.0 0.00 0.00 0.00 32 1011.8
20260507092427 74 209 11.0 36.0 0.00 0.00 0.00 33 1011.8
20260507091434 75 182 6.0 17.0 0.00 0.00 0.00 36 1011.7
20260507090643 74 167 6.0 17.0 0.00 0.00 0.00 36 1011.7
20260507085428 74 205 9.0 17.0 0.00 0.00 0.00 38 1011.8
20260507084427 74 175 9.0 20.0 0.00 0.00 0.00 39 1012.1
20260507083427 73 167 9.0 23.0 0.00 0.00 0.00 41 1012.0
20260507082427 73 198 6.0 19.0 0.00 0.00 0.00 43 1012.0
20260507080428 73 184 6.0 13.0 0.00 0.00 0.00 44 1012.0
20260507074429 72 137 4.0 10.0 0.00 0.00 0.00 47 1012.4
20260507073428 71 130 2.0 7.0 0.00 0.00 0.00 50 1012.7
20260507072429 70 83 1.0 3.0 0.00 0.00 0.00 51 1012.8
20260507070427 69 107 1.0 4.0 0.00 0.00 0.00 52 1012.9
20260507065424 69 128 5.0 10.0 0.00 0.00 0.00 52 1012.9
20260507064425 68 117 5.0 10.0 0.00 0.00 0.00 52 1012.9
20260507063425 68 130 4.0 12.0 0.00 0.00 0.00 54 1012.9
20260507062423 68 135 4.0 8.0 0.00 0.00 0.00 54 1013.1
20260507061423 68 121 8.0 14.0 0.00 0.00 0.00 53 1013.0
20260507060423 67 139 5.0 12.0 0.00 0.00 0.00 52 1012.9
20260507054423 67 279 2.0 6.0 0.00 0.00 0.00 47 1013.0
20260507052425 67 53 2.0 4.0 0.00 0.00 0.00 43 1012.9
20260507051425 68 267 0.0 2.0 0.00 0.00 0.00 41 1013.0
20260507050421 68 267 1.0 3.0 0.00 0.00 0.00 41 1013.0
20260507045422 68 101 7.0 12.0 0.00 0.00 0.00 39 1012.9
20260507044421 69 138 7.0 11.0 0.00 0.00 0.00 37 1012.9
20260507043420 69 140 9.0 14.0 0.00 0.00 0.00 36 1012.9
20260507042423 68 108 7.0 12.0 0.00 0.00 0.00 37 1012.7
20260507041423 66 181 3.0 9.0 0.00 0.00 0.00 44 1013.0
20260507040421 67 186 2.0 5.0 0.00 0.00 0.00 45 1013.0
20260507035421 68 301 2.0 8.0 0.00 0.00 0.00 45 1013.0
20260507033421 67 126 5.0 11.0 0.00 0.00 0.00 41 1013.0
20260507032414 66 118 6.0 10.0 0.00 0.00 0.00 44 1012.8
20260507031414 65 126 5.0 10.0 0.00 0.00 0.00 48 1012.9
20260507030414 65 88 3.0 8.0 0.00 0.00 0.00 51 1013.0
20260507025414 66 149 5.0 10.0 0.00 0.00 0.00 50 1013.0
20260507024416 66 157 3.0 7.0 0.00 0.00 0.00 49 1013.0
20260507023414 67 192 2.0 4.0 0.00 0.00 0.00 48 1013.2
20260507022414 67 315 1.0 4.0 0.00 0.00 0.00 47 1013.0
20260507021421 67 324 1.0 3.0 0.00 0.00 0.00 46 1013.1
20260507020418 67 324 4.0 6.0 0.00 0.00 0.00 46 1013.0
20260507014419 67 86 1.0 3.0 0.00 0.00 0.00 48 1013.0
20260507012411 68 128 2.0 4.0 0.00 0.00 0.00 46 1012.8
20260507011412 68 329 2.0 5.0 0.00 0.00 0.00 45 1012.9
20260507010412 67 344 3.0 6.0 0.00 0.00 0.00 47 1013.1
20260507004408 67 5 1.0 3.0 0.00 0.00 0.00 50 1012.9
20260507003408 67 5 1.0 2.0 0.00 0.00 0.00 47 1012.9
20260507002414 67 59 3.0 5.0 0.00 0.00 0.00 47 1013.0
20260507001407 68 344 4.0 5.0 0.00 0.00 0.00 47 1012.9
20260507000408 68 340 2.0 5.0 0.00 0.00 0.00 45 1013.2
20260506234407 68 134 1.0 7.0 0.00 0.00 0.00 43 1013.3
20260506233407 69 9 1.0 4.0 0.00 0.00 0.00 46 1013.4
20260506232409 69 29 1.0 5.0 0.00 0.00 0.00 43 1013.5
20260506231409 69 279 3.0 10.0 0.00 0.00 0.00 44 1013.5
20260506230408 69 163 6.0 16.0 0.00 0.00 0.00 45 1013.3
20260506225407 69 176 7.0 14.0 0.00 0.00 0.00 46 1013.2
20260506222406 67 169 4.0 19.0 0.00 0.00 0.00 49 1013.3
20260506221405 67 60 1.0 4.0 0.00 0.00 0.00 52 1013.2
20260506220405 67 198 3.0 8.0 0.00 0.00 0.00 52 1013.2
20260506215407 67 161 0.0 2.0 0.00 0.00 0.00 53 1013.0
20260506214404 66 265 2.0 4.0 0.00 0.00 0.00 52 1012.9
20260506213403 66 237 4.0 6.0 0.00 0.00 0.00 53 1013.3
20260506212403 66 174 7.0 11.0 0.00 0.00 0.00 53 1013.0
20260506211404 66 257 4.0 10.0 0.00 0.00 0.00 53 1012.7
20260506210403 66 150 3.0 8.0 0.00 0.00 0.00 54 1012.2
20260506205406 66 158 4.0 7.0 0.00 0.00 0.00 53 1012.3
20260506204402 66 255 1.0 8.0 0.00 0.00 0.00 56 1012.7
20260506203405 66 286 4.0 9.0 0.00 0.00 0.00 57 1013.0
20260506202401 66 335 0.0 5.0 0.00 0.00 0.00 60 1012.8
20260506201400 66 157 0.0 1.0 0.00 0.00 0.00 60 1013.0
20260506200400 66 157 1.0 3.0 0.00 0.00 0.00 59 1013.4
20260506195401 67 157 1.0 3.0 0.00 0.00 0.00 62 1013.5
20260506193400 67 157 1.0 3.0 0.00 0.00 0.00 63 1013.7
20260506192401 67 157 2.0 5.0 0.00 0.00 0.00 63 1013.3
20260506190402 69 175 2.0 4.0 0.00 0.00 0.00 55 1013.7
20260506185401 69 251 3.0 7.0 0.00 0.00 0.00 53 1013.8
20260506183401 69 227 8.0 12.0 0.00 0.00 0.00 54 1013.7
20260506182359 69 256 8.0 14.0 0.00 0.00 0.00 54 1013.8
20260506180356 69 269 4.0 7.0 0.00 0.00 0.00 64 1013.8
20260506175356 69 290 3.0 6.0 0.00 0.00 0.00 65 1013.6
20260506174358 69 287 3.0 6.0 0.00 0.00 0.00 65 1013.7
20260506173355 69 314 4.0 8.0 0.00 0.00 0.00 64 1013.4
20260506172356 69 275 4.0 7.0 0.00 0.00 0.00 64 1013.3
20260506171400 69 277 6.0 9.0 0.00 0.00 0.00 64 1013.5
20260506165356 69 280 6.0 10.0 0.00 0.00 0.00 65 1013.7
20260506163353 69 294 9.0 14.0 0.00 0.00 0.00 67 1013.9
20260506162353 69 298 11.0 15.0 0.00 0.00 0.00 67 1013.7
20260506160355 70 283 12.0 18.0 0.00 0.00 0.00 73 1013.8
20260506155352 71 269 12.0 16.0 0.00 0.00 0.00 73 1013.8
20260506153350 74 266 9.0 21.0 0.00 0.00 0.00 55 1013.5
20260506152354 76 202 7.0 15.0 0.00 0.00 0.00 48 1013.3
20260506151350 76 208 5.0 12.0 0.00 0.00 0.00 42 1013.3
20260506150350 76 192 7.0 14.0 0.00 0.00 0.00 46 1013.2
20260506145354 76 272 13.0 19.0 0.00 0.00 0.00 47 1013.2
20260506144349 77 261 10.0 22.0 0.00 0.00 0.00 45 1013.1
20260506143342 77 236 11.0 24.0 0.00 0.00 0.00 46 1013.2
20260506141342 78 236 7.0 13.0 0.00 0.00 0.00 44 1012.9
20260506140342 78 237 10.0 15.0 0.00 0.00 0.00 44 1012.7
20260506135341 79 217 10.0 17.0 0.00 0.00 0.00 42 1012.6
20260506134342 81 279 6.0 16.0 0.00 0.00 0.00 39 1012.8
20260506132340 81 24 3.0 8.0 0.00 0.00 0.00 38 1012.8
20260506131344 81 223 7.0 17.0 0.00 0.00 0.00 38 1012.9
20260506130339 81 202 9.0 17.0 0.00 0.00 0.00 39 1013.1
20260506125339 81 254 9.0 17.0 0.00 0.00 0.00 41 1013.2
20260506123340 79 282 4.0 11.0 0.00 0.00 0.00 48 1013.5
20260506122341 79 54 7.0 14.0 0.00 0.00 0.00 47 1013.4
20260506121341 78 60 6.0 13.0 0.00 0.00 0.00 49 1013.3
20260506115336 78 41 7.0 13.0 0.00 0.00 0.00 53 1013.5
20260506114340 77 56 8.0 15.0 0.00 0.00 0.00 54 1013.7
20260506113342 77 80 9.0 15.0 0.00 0.00 0.00 52 1013.9
20260506110336 77 39 7.0 13.0 0.00 0.00 0.00 53 1014.2
20260506105334 77 78 6.0 11.0 0.00 0.00 0.00 51 1014.2
20260506104333 77 19 6.0 12.0 0.00 0.00 0.00 50 1014.5
20260506103333 78 31 5.0 10.0 0.00 0.00 0.00 49 1014.4
20260506102334 78 59 4.0 10.0 0.00 0.00 0.00 48 1014.6
20260506101337 78 355 2.0 10.0 0.00 0.00 0.00 46 1014.7
20260506100333 78 115 1.0 6.0 0.00 0.00 0.00 48 1014.8
20260506095346 76 12 2.0 6.0 0.00 0.00 0.00 50 1014.8
20260506094341 75 42 3.0 6.0 0.00 0.00 0.00 51 1015.0